Change the Weather History Date:

Sunday, July 14, 2013

  Actual Average Record
Temperature  
Mean Temperature 78 °F -  
Max Temperature 88 °F 90 °F 106 °F (1936)
Min Temperature 68 °F 67 °F 52 °F (1975)
Cooling Degree Days 13    
Growing Degree Days 28 (Base 50)    
Moisture  
Dew Point 70 °F    
Average Humidity 74    
Maximum Humidity 93    
Minimum Humidity 53    
Precipitation  
Precipitation 0.00 in - - ()
Sea Level Pressure  
Sea Level Pressure 30.12 in    
Wind  
Wind Speed 6 mph (ESE)    
Max Wind Speed 12 mph    
Max Gust Speed 18 mph    
Visibility 10 miles    
Events      
Averages and records for this station are not official NWS values.
T = Trace of Precipitation, MM = Missing Value Source: NWS Daily Summary

Daily Weather History Graph

Daily Weather History Graph

Search for Another Location

Airport or City:

Trip Planner

Search our weather history database for the weather conditions in past years. The results will help you decide how hot, cold, wet, or windy it might be!

Date:

Astronomy

Jul. 14, 2013 Rise Set
Actual Time 5:38 AM CDT 8:10 PM CDT
Civil Twilight 5:07 AM CDT 8:40 PM CDT
Nautical Twilight 4:30 AM CDT 9:18 PM CDT
Astronomical Twilight 3:47 AM CDT 10:00 PM CDT
Moon 11:46 AM CDT (7/14) 11:30 PM CDT (7/14)
Length of Visible Light 15h 33m
Length of Day
14h 32m
Waxing Crescent, 35% of the Moon is Illuminated
Jul 14
Waxing Crescent
Jul 15
First Quarter
Jul 22
Full
Jul 29
Last Quarter
Aug 6
New

Hourly Weather History & Observations

Time (CDT) Temp. Heat Index Dew Point Humidity Pressure Visibility Wind Dir Wind Speed Gust Speed Precip Events Conditions
12:56 AM 70.0 °F - 64.9 °F 84% 30.07 in 10.0 mi East 4.6 mph - N/A   Clear
1:56 AM 70.0 °F - 65.8 °F 87% 30.06 in 10.0 mi East 4.6 mph - N/A   Clear
2:56 AM 70.0 °F - 66.9 °F 90% 30.07 in 10.0 mi East 4.6 mph - 0.00 in   Clear
3:56 AM 68.9 °F - 66.9 °F 93% 30.08 in 10.0 mi ESE 5.8 mph - N/A   Clear
4:56 AM 68.9 °F - 66.9 °F 93% 30.09 in 10.0 mi East 4.6 mph - N/A   Clear
5:56 AM 68.9 °F - 66.9 °F 93% 30.11 in 10.0 mi East 4.6 mph - N/A   Clear
6:56 AM 72.0 °F - 68.0 °F 87% 30.12 in 10.0 mi ESE 5.8 mph - N/A   Clear
7:56 AM 75.9 °F - 68.9 °F 79% 30.14 in 10.0 mi ESE 8.1 mph - N/A   Clear
8:56 AM 79.0 °F - 70.0 °F 74% 30.15 in 10.0 mi Variable 4.6 mph - N/A   Clear
9:56 AM 82.9 °F 87.0 °F 70.0 °F 65% 30.15 in 10.0 mi SSE 5.8 mph - N/A   Clear
10:56 AM 84.9 °F 89.4 °F 70.0 °F 61% 30.14 in 10.0 mi Calm Calm - N/A   Partly Cloudy
11:56 AM 86.0 °F 90.7 °F 70.0 °F 59% 30.14 in 10.0 mi SSE 9.2 mph - N/A   Scattered Clouds
12:56 PM 86.0 °F 89.7 °F 68.9 °F 56% 30.14 in 10.0 mi ESE 10.4 mph - N/A   Mostly Cloudy
1:56 PM 88.0 °F 92.9 °F 70.0 °F 55% 30.13 in 10.0 mi East 8.1 mph - N/A   Mostly Cloudy
2:56 PM 88.9 °F 93.8 °F 70.0 °F 53% 30.12 in 10.0 mi SE 6.9 mph - 0.00 in   Scattered Clouds
3:56 PM 88.9 °F 93.8 °F 70.0 °F 53% 30.10 in 10.0 mi SE 11.5 mph 18.4 mph N/A   Scattered Clouds
4:56 PM 88.9 °F 93.8 °F 70.0 °F 53% 30.10 in 10.0 mi ESE 10.4 mph - N/A   Scattered Clouds
5:56 PM 86.9 °F 91.7 °F 70.0 °F 57% 30.10 in 10.0 mi ESE 5.8 mph - N/A   Scattered Clouds
6:56 PM 83.8 °F 89.2 °F 72.0 °F 67% 30.11 in 10.0 mi ENE 5.8 mph - N/A   Scattered Clouds
7:56 PM 79.0 °F - 73.9 °F 84% 30.13 in 10.0 mi SW 5.8 mph - 0.00 in   Scattered Clouds
8:56 PM 79.9 °F - 73.9 °F 82% 30.14 in 10.0 mi Calm Calm - 0.00 in   Mostly Cloudy
9:56 PM 81.0 °F 86.2 °F 73.9 °F 79% 30.15 in 10.0 mi East 4.6 mph - 0.00 in   Scattered Clouds
10:56 PM 79.9 °F - 73.9 °F 82% 30.16 in 10.0 mi ESE 8.1 mph - 0.00 in   Clear
11:56 PM 79.0 °F - 72.9 °F 81% 30.17 in 10.0 mi ESE 8.1 mph - N/A   Scattered Clouds